Погода в Мудьюге

Поиск расширенной информации на нашем сайте:

Полезная информация:

Новости сайта



02.01.2020
Опубликован Долгосрочный прогноз погоды по городам России и ближнего зарубежья на январь 2020 года.
Карты: Прогноз на январь и февраль 2020 года, Сравнение прогнозируемой аномалии приземной температуры воздуха на январь 2020 года по разным моделям.




Погода в Мудьюге - сегодня

Время (UTC), дата Ветер
(°,м/с) 
Видим.   Явления Облачность Т
(°С)
Тd
(°С)
f(%) Тe
(°С)
Pmin
(гПа)
dP
(гПа)
Po
(мм)
O2
(г/м3)
Тmin Tmax R s Состояние
почвы
15 29.11.20 180 (Ю) 20000 м    10/10 210 м 
[St]
-7.4 -7.4 100 -11  1036.6  -0.1  777  323    -6.2       
18 29.11.20 170 (Ю) 20000 м    10/10 210 м 
[St]
-5.8 -5.8 100 -10  1036.3  -0.4  777  321           
21 29.11.20 140 (ЮВ) 20000 м    10/10 210 м 
[St]
-6.2 -6.2 100 -10  1035.4  -0.8  776  321           
00 30.11.20 160 (Ю) 20000 м    10/10 270 м 
[St]
-5.8 -5.8 100 -10  1034.2  -0.4  775  320           
03 30.11.20 150 (ЮВ) 2000 м  слаб. ливневой снег  10/10 300 м кучево-дожд. 
[Cb cap]
-4.5 -4.5 100 -9  1032.6  -1.6  774  318  -7.4    0.0  неравномерный
мокрый или
старый снег
100% 
06 30.11.20 140 (ЮВ) 9-10{10}  4000 м  дымка{ливн. осадки}  10/10 240 м 
[St]
-4.1 -4.1 100 -10  1031.4  -1.2  773  317           
09 30.11.20 150 (ЮВ) 8-10{12}  4000 м  дымка  10/10 120 м 
[St]
-3.2 -3.5 98 -8  1030.9  -0.4  773  316           
12 30.11.20 150 (ЮВ) 9-11{12}  20000 м  позёмок{снег}  10/10 360 м 
[St]
-2.6 -3 97 -8  1029.4  -1.5  772  314           
15 30.11.20 150 (ЮВ) 9-11{12}  20000 м  позёмок  10/10 270 м 
[St]
-2.4 -2.4 100 -8  1027.8  -1.6  771  314    -2.4  0.0     
18 30.11.20 140 (ЮВ) 8-10{11}  20000 м  {ливн. осадки}  9/9 720 м 
[Sc]
-1.3 -1.4 99 -6  1025.6  -2.2  769  311           
21 30.11.20 150 (ЮВ) 8{12}  20000 м  в посл. час ливневой снег  9/9 420 м кучево-дожд. 
[Cb cap]
-0.7 -0.7 100 -5  1023.9  -1.6  768  310           
00 01.12.20 150 (ЮВ) 7{10}  20000 м  {ливн. осадки}  10/10 210 м 
[St]
-0.3 -0.3 100 -4  1022.2  -1.8  766  309           
03 01.12.20 160 (Ю) 8{10}  1000 м  ливневой снег  10/10 300 м кучево-дожд. 
[Cb cap]
-0.1 -0.1 100 -4  1020.8  -1.4  765  308  -2.4    0.3  неравномерный
мокрый или
старый снег
100% 
06 01.12.20 170 (Ю) 8-10{11}  20000 м  позёмок{ливн. осадки}  9/5 300 м кучево-дожд., средняя 
[Cb cap|Ac As]
+0.2 -0.1 98 -4  1020.3  -0.4  765  308           
09 01.12.20 170 (Ю) 7{12}  20000 м    9/8 600 м кучево-дожд., средняя 
[Cb cap|Ac trans]
+0.4 -0.3 95 -3  1020.5  0.2  765  308           
12 01.12.20 180 (Ю) 6{10}  20000 м    9/8 400 м кучево-дожд., средняя 
[Cb cap|Ac As]
-0.6 -1.5 94 -4  1020.6  765  309           
15 01.12.20 180 (Ю) 6{10}  20000 м    8/4 300 м кучево-дожд., средняя 
[Cb cap|Ac trans]
-1.1 -2 94 -5  1020.9  0.4  765  310    +0.4  0.2     
18 01.12.20 180 (Ю) 20000 м    10/0 средняя 
[Ac und]
-0.8 -1.6 94 -5  1020.9  765  310           
21 01.12.20 160 (Ю) 20000 м    9/5 300 м кучево-дожд., средняя 
[Cb cap|Ac As]
-0.8 -1.3 96 -5  1020.8  -0.2  765  309           
00 02.12.20 170 (Ю) 7{11}  1000 м  ливневой снег  10/10 300 м кучево-дожд. 
[Cb cap]
-0.6 -0.6 100 -5  1019.8  -0.9  765  309           
03 02.12.20 220 (ЮЗ) 20000 м  {ливн. осадки}  10/10 330 м кучево-дожд. 
[Cb cap]
+0.2 +0.2 100 -3  1020.9  765  308  -1.1    неравномерный
сухой снег
100% 
06 02.12.20 250 (З) 7-10{10}  20000 м  в посл. час ливневой снег  10/10 360 м кучево-дожд. 
[Cb cap]
+0.9 +0.6 98 -3  1023.2  2.3  767  308           
09 02.12.20 230 (ЮЗ) 4{10}  20000 м    10/1 300 м кучево-дожд., средняя 
[Cb cap|Ac und]
+0.7 +0.1 96 -2  1025.3  2.1  769  309           
12 02.12.20 210 (ЮЗ) 20000 м    10/10 600 м кучево-дожд. 
[Cb cap]
+0.3 +0.1 99 -3  1026.4  769  310           
15 02.12.20 200 (Ю) 6{11}  20000 м    9/9 330 м кучево-дожд. 
[Cb cap]
-0.2 -0.6 97 -4  1026.9  0.5  770  311    +1.1  0.0     
Время (UTC), дата Ветер
(°,м/с) 
Видим.   Явления Облачность Т
(°С)
Тd
(°С)
f(%) Тe
(°С)
Pmin
(гПа)
dP
(гПа)
Po
(мм)
O2
(г/м3)
Тmin Tmax R s Состояние
почвы

Для получения пояснительной информации подведите курсор к названию столбца.

ПОГОДА в Мудьюге - архив

Всё, что Вы хотите узнать о погоде в Мудьюге - удобно и подробно!

Выберите нужную дату (начиная с 1 января 2019* года) и нажмите кнопку "Найти".
Будут отображены архивные сводки погоды по пункту Мудьюг, начиная с указанной даты.


Отображать данные в формате CSV (для использования в таблицах Excel)


Внимание! Наш архив погоды предназначен исключительно для личного некоммерческого использования в познавательных целях. Если Вам необходимы официальные справки о состоянии погоды (для производственных, юридических, коммерческих и т.п. целей), обращайтесь в органы Росгидромета.

*Примечание: данная дата относится к архиву по метеостанциям СССР (Россия, СНГ, Балтия).
Архив по метеостанциям Зарубежной Европы и Азии (кроме Китая) хранится 10 дней, по другим регионам земного шара (Китай, Африка, Америка, Австралия, Океания) - 1 день.

Мудьюг - район местоположения метеостанции


Название, широта, долгота, высота метеостанции:
Мудьюг 64.9°ш. 40.3°д. 3 м над ур. моря [Российская Федерация]

Дополнительная информация

В oтличие oт бoльшинства пoгoдных сайтoв мы публикуем пoдрoбную метеoинфoрмацию в детальнoм прoфессиoнальнoм фoрмате.

Характеристики температуры и влажнoсти вoздуха измеряются на высoте 2 м в тени вдали oт зданий и деревьев.
Скoрoсть ветра измеряется на высoте 10 м (на урoвне рoста челoвека скoрoсть ветра ниже в 1.5-2 раза). Если метеoстанция нахoдится в гoрoде или в лесу, тo скoрoсть ветра занижена на 2-4 м/с пo сравнению с oткрытым местoм. Скoрoсть ветра над акватoриями крупных рек и oзёр, а также на вершинах хoлмoв на 2-5 м/с выше, чем в oбычных услoвиях.
Атмoсфернoе давление в разных тoчках местнoсти мoжет значительнo oтличаться oт давления на метеoстанции, в зависимoсти oт услoвий рельефа (при пoдъёме на 10 м давление пoнижается примернo на 1 мм рт.ст.).